TimeAKST,TemperatureF,Dew PointF,Humidity,Sea Level PressureIn,VisibilityMPH,Wind Direction,Wind SpeedMPH,Gust SpeedMPH,PrecipitationIn,Events,Conditions,WindDirDegrees,DateUTC
12:01 AM,-15.0,-18.9,82,30.97,10.0,West,15.0,-,N/A,,Unknown,280,2013-01-19 09:01:00
1:01 AM,-15.0,-18.9,82,30.98,10.0,West,15.0,-,N/A,,Unknown,270,2013-01-19 10:01:00
2:01 AM,-15.0,-18.9,82,30.99,10.0,WNW,15.0,-,N/A,,Unknown,290,2013-01-19 11:01:00
3:01 AM,-15.0,-18.9,82,31.00,10.0,West,11.5,-,N/A,,Unknown,280,2013-01-19 12:01:00
4:01 AM,-15.0,-20.0,78,31.00,10.0,West,9.2,-,N/A,,Unknown,270,2013-01-19 13:01:00
5:01 AM,-18.0,-23.1,78,31.00,10.0,WSW,10.4,-,N/A,,Clear,250,2013-01-19 14:01:00
6:01 AM,-20.0,-25.1,78,31.00,10.0,WSW,11.5,-,N/A,,Clear,250,2013-01-19 15:01:00
7:01 AM,-20.9,-26.0,77,30.99,10.0,West,9.2,-,N/A,,Clear,270,2013-01-19 16:01:00
8:01 AM,-20.9,-26.0,77,30.99,10.0,West,8.1,-,N/A,,Clear,270,2013-01-19 17:01:00
9:01 AM,-20.9,-27.0,73,30.98,10.0,WSW,4.6,-,N/A,,Clear,240,2013-01-19 18:01:00
10:01 AM,-23.1,-27.9,78,30.97,9.0,Calm,Calm,-,N/A,,Clear,0,2013-01-19 19:01:00
11:01 AM,-24.0,-29.9,74,30.97,10.0,South,3.5,-,N/A,,Clear,180,2013-01-19 20:01:00
12:01 PM,-24.0,-29.9,74,30.96,9.0,South,3.5,-,N/A,,Clear,180,2013-01-19 21:01:00
1:01 PM,-24.0,-29.9,74,30.95,10.0,Calm,Calm,-,N/A,,Clear,0,2013-01-19 22:01:00
2:01 PM,-24.0,-29.0,77,30.93,10.0,SE,3.5,-,N/A,,Clear,140,2013-01-19 23:01:00
3:01 PM,-25.1,-31.0,74,30.91,10.0,SSE,4.6,-,N/A,,Clear,160,2013-01-20 00:01:00
4:01 PM,-25.1,-31.0,74,30.89,10.0,SE,4.6,-,N/A,,Clear,130,2013-01-20 01:01:00
5:01 PM,-26.0,-31.0,77,30.88,10.0,ESE,3.5,-,N/A,,Clear,120,2013-01-20 02:01:00
6:01 PM,-26.0,-31.0,77,30.86,10.0,East,5.8,-,N/A,,Clear,100,2013-01-20 03:01:00
7:01 PM,-25.1,-29.9,78,30.84,10.0,East,8.1,-,N/A,,Clear,80,2013-01-20 04:01:00
8:01 PM,-24.0,-29.0,77,30.83,10.0,ESE,5.8,-,N/A,,Clear,120,2013-01-20 05:01:00
9:01 PM,-26.0,-31.0,77,30.82,10.0,East,5.8,-,N/A,,Clear,80,2013-01-20 06:01:00
10:01 PM,-25.1,-31.0,74,30.80,10.0,East,4.6,-,N/A,,Clear,100,2013-01-20 07:01:00
11:01 PM,-25.1,-29.9,78,30.79,10.0,ESE,3.5,-,N/A,,Clear,120,2013-01-20 08:01:00